Regional Weather Roundup
Issued by NWS New Orleans/Baton Rouge, LA

Home | Current Version | Previous Version | Text Only | Print | Product List | Glossary On
Versions: 1 2 3 4 5 6 7 8 9 10 11 12 13 14 15 16 17 18 19 20 21 22 23 24 25 26 27 28 29 30 31 32 33 34 35 36 37 38 39 40 41 42 43 44 45 46 47 48 49 50
997
ASUS44 KLIX 272001
RWRLIX
NEW ORLEANS REGIONAL WEATHER ROUNDUP
NATIONAL WEATHER SERVICE NEW ORLEANS LA
200 PM CST TUE JAN 27 2015

NOTE: "FAIR" INDICATES FEW OR NO CLOUDS BELOW 12,000 FEET WITH NO
      SIGNIFICANT WEATHER AND/OR OBSTRUCTIONS TO VISIBILITY.
      SKY/WX - SKY CONDITION AND SIGNIFICANT WEATHER.
      TMP - AIR TEMPERATURE.     DP    - DEWPOINT TEMPERATURE.
      RH  - RELATIVE HUMIDITY.   PRES  - PRESSURE.
      HI  - HEAT INDEX.          WCI   - WIND CHILL INDEX.

*  THESE STATIONS ARE NOT NWS OR FAA STATIONS AND ARE NOT UNDER
   NWS QUALITY CONTROL.

LAZ038-040-048-061>063-065>067-069-272100-
SOUTHEAST LOUISIANA

CITY           SKY/WX    TMP DP  RH WIND       PRES   REMARKS
N.O. AUDUBON     N/A     70  48  45 MISG        N/A
N.O. INTL ARPT MOSUNNY   70  41  34 NW9       30.08F
N.O. LAKEFRONT SUNNY     62  45  53 W6        30.08F
N.O. DOWNTOWN*   N/A    N/A N/A N/A W3        30.08F
SLIDELL        SUNNY     76  37  24 VRB6      30.05F
BATON ROUGE    SUNNY     75  32  20 N7        30.08F
BOOTHVILLE     SUNNY     66  44  45 VRB5      30.08F
BELLE CHASSE   MOSUNNY   71  35  26 VRB6      30.07F
BOGALUSA*        N/A     73  32  21 N8G16     30.07F
GALLIANO*      NOT AVBL
NEW ROADS*     NOT AVBL
GONZALES*      NOT AVBL
HAMMOND*       NOT AVBL
HOUMA*         SUNNY     73  41  31 N5        30.08F
PORT FOURCHON* CLEAR     66  50  55 W6        30.12F

$$

MSZ070-080>082-272100-
SOUTHERN MISSISSIPPI

CITY           SKY/WX    TMP DP  RH WIND       PRES   REMARKS
MCCOMB         SUNNY     71  32  23 N13       30.07F
GULFPORT       SUNNY     71  35  26 NW12      30.03F
BILOXI         SUNNY     71  36  28 SW5       30.04F
PASCAGOULA     SUNNY     70  36  28 NW7       30.03F
STENNIS ARPT*  SUNNY     72  27  18 NW12      30.05F

$$

COASTAL OBSERVATIONS
LAKE AND NEARSHORE STATIONS

STATION/POSITION TIME  TEMP    WIND        PRES    WAVE
                       AIR SEA DIR/SP/G            HT/PER
                 (UTC) (F)     (DEG/KT/KT) (MB)    (FT/S)
PASCAGOULA       1920   60     230/  8/ 10 1017.0
WAVELAND YACHT   1920   67     340/  9/ 11 1016.9
GRAND ISLE       1920   61 58  270/  3/  3 1019.6
SOUTHWEST PASS   1920   67 46  360/  6/  7 1019.4
NEW CANAL        1920   60 53  260/  2/  3 1019.2
SHELL BEACH      1920   61 54  290/  4/  5 1018.6

OFFSHORE STATIONS

STATION/POSITION TIME  TEMP    WIND        PRES    WAVE
                       AIR SEA DIR/SP/G            HT/PER
                 (UTC) (F)     (DEG/KT/KT) (MB)    (FT/S)
64 S DAUPHIN ISL 1903   61 69  310/  8/ 10 1018.3    4/ 6

$$




USA.gov is the U.S. government's official web portal to all federal, state and local government web resources and services.